Location: Berlise
(49.6641°N, 4.1077°E)
Time: 23:48:05
(UTC+00:00)

COSMOS 2428 - Pass Details

Date: 27 January 2021
Orbit: 848 x 855 km, 70.9° (Epoch: 01 March)

Event Time Altitude Azimuth Distance (km) Brightness Sun altitude
Exits shadow 04:25:07 37° 357° (N) 1,310 3.6 -28.6°
Drops below altitude 10° 04:28:46 10° 22° (NNE) 2,484 5.4 -28.0°
Sets 04:31:19 0° 28° (NNE) 3,423 6.3 -27.6°
